Regional Weather Roundup
Issued by NWS Cleveland, OH

Home | Current Version | Previous Version | Graphics & Text | Print | Product List | Glossary On
Versions: 1 2 3 4 5 6 7 8 9 10 11 12 13 14 15 16 17 18 19 20 21 22 23 24 25 26 27 28 29 30 31 32 33 34 35 36 37 38 39 40 41 42 43 44 45 46 47 48 49 50
000
ASUS41 KCLE 011610
RWRCLE
OHIO REGIONAL WEATHER ROUNDUP
NATIONAL WEATHER SERVICE WILMINGTON, OH
1200 PM EDT WED OCT 01 2014

NOTE: "FAIR" INDICATES FEW OR NO CLOUDS BELOW 12,000 FEET WITH NO
SIGNIFICANT WEATHER AND/OR OBSTRUCTIONS TO VISIBILITY.

OHZ001>008-015>018-024>027-034-035-043-044-011700-
   NORTHWEST OHIO

CITY           SKY/WX    TMP DP  RH WIND       PRES   REMARKS
DEFIANCE       MOSUNNY   60  49  66 VRB5      30.08S
FINDLAY        CLOUDY    62  53  72 NE3       30.06S
TOLEDO EXPRESS CLOUDY    61  51  70 NE5       30.07S
TOLEDO METCALF PTSUNNY   63  52  67 VRB3      30.07F
LIMA           PTSUNNY   61  52  72 E5        30.07R
$$

OHZ009>014-019>023-028>033-038-089-011700-
   NORTHEAST OHIO

CITY           SKY/WX    TMP DP  RH WIND       PRES   REMARKS
CLE-HOPKINS    PTSUNNY   64  56  75 N7        30.07S
CLE-LAKEFRONT  CLOUDY    64  58  80 NW6       30.05S
CUY CO. ARPT   PTSUNNY   63  61  94 N9        30.06S
LORAIN-ELYRIA  CLOUDY    66  56  70 CALM      30.06F
ASHTABULA      MOSUNNY   66  59  78 VRB5      30.05F
AKRON-CANTON   CLOUDY    61  55  81 NE5       30.06S
WOOSTER        CLOUDY    62  55  77 NE3       30.07R
MANSFIELD      CLOUDY    60  55  83 NE5       30.06F
YOUNGSTOWN     CLOUDY    59  56  89 CALM      30.06S FOG
$$

OHZ042-051>053-060>062-070>072-077>081-011700-
  SOUTHWEST OHIO

CITY           SKY/WX    TMP DP  RH WIND       PRES   REMARKS
CINC-COVINGTON SUNNY     66  50  56 CALM      30.04S
CINC-LUNKEN    SUNNY     61  53  75 CALM      30.05S
HAMILTON       PTSUNNY   59  53  80 N7        30.07R
DAYTON         CLOUDY    56  52  86 E5        30.08R FOG
WRIGHT-PAT AFB CLOUDY    55  53  92 NE3       30.07R FOG
DAYTON GENERAL CLOUDY    53  52  96 E7        30.06R FOG
WILMINGTON     CLOUDY    57  52  83 NE5       30.06S
$$

OHZ036-037-039>041-045>050-054>059-063>069-073>076-082>088-011700-
  CENTRAL AND SOUTHEAST OHIO

CITY           SKY/WX    TMP DP  RH WIND       PRES   REMARKS
COLUMBUS       PTSUNNY   62  51  67 NE7       30.05S
OSU AIRPORT    PTSUNNY   60  53  77 N5        30.05F
BOLTON FIELD   CLOUDY    59  54  82 CALM      30.06S
RICKENBACK AFB CLOUDY    59  53  79 CALM      30.05S
NEWARK         CLOUDY    58  54  86 CALM      30.06S
MARION         PTSUNNY   62  53  72 E5        30.06F
LANCASTER      PTSUNNY   63  52  67 VRB5      30.06S
ZANESVILLE     CLOUDY    61  54  77 NW5       30.05S
NEW PHILLY     CLOUDY    60  56  86 CALM      30.06F
$$


USA.gov is the U.S. government's official web portal to all federal, state and local government web resources and services.